Location: Winthrop
(48.4780°N, 120.1850°W)
Time: 23:08:09
(UTC-08:00)

Vanguard 3 - Visible Passes

Search period start: 05 February 2023 00:00
Search period end: 15 February 2023 00:00
Orbit: 509 x 3252 km, 33.4° (Epoch: 05 February)

Date Brightness Start Highest point End Pass type
(mag) Time Alt. Az. Time Alt. Az. Time Alt. Az.
05 Feb 9.7 19:14:24 10° SW 19:22:46 37° SSE 19:29:06 26° SE visible
05 Feb 9.9 21:24:48 10° WSW 21:33:33 38° SSW 21:33:33 38° SSW visible
05 Feb 11.1 23:37:29 10° WSW 23:37:59 11° WSW 23:37:59 11° WSW visible
06 Feb 9.7 18:00:47 10° SSW 18:07:25 28° SSE 18:17:36 10° ESE visible
06 Feb 9.7 20:10:05 10° WSW 20:19:15 39° S 20:22:22 36° SSE visible
06 Feb 10.4 22:21:25 10° WSW 22:26:49 26° SW 22:26:49 26° SW visible
07 Feb 9.6 18:55:53 10° SW 19:03:27 35° SSE 19:11:12 20° ESE visible
07 Feb 9.9 21:06:11 10° WSW 21:15:39 36° SSW 21:15:39 36° SSW visible
07 Feb 10.9 23:18:55 10° WSW 23:20:05 13° WSW 23:20:05 13° WSW visible
08 Feb 9.6 17:42:17 10° SSW 17:48:14 27° SSE 17:57:19 10° ESE visible
08 Feb 9.7 19:51:33 10° WSW 19:59:51 36° S 20:04:29 29° SE visible
08 Feb 10.3 22:02:51 10° WSW 22:08:56 26° SW 22:08:56 26° SW visible
09 Feb 9.5 18:37:26 10° SW 18:44:14 33° S 18:53:21 14° ESE visible
09 Feb 9.9 20:47:42 10° WSW 20:56:28 33° S 20:57:48 32° S visible
09 Feb 10.9 23:00:37 10° WSW 23:02:15 13° WSW 23:02:15 13° WSW visible
10 Feb 9.7 19:33:07 10° WSW 19:40:33 33° S 19:46:42 22° SE visible
10 Feb 10.3 21:44:27 10° WSW 21:51:09 25° SSW 21:51:09 25° SSW visible
11 Feb 9.5 18:19:01 10° SW 18:25:05 30° S 18:34:38 10° ESE visible
11 Feb 10.0 20:29:18 10° WSW 20:37:05 29° SSW 20:40:05 26° S visible
11 Feb 10.8 22:42:40 10° WSW 22:44:32 13° SW 22:44:32 13° SW visible
12 Feb 9.7 19:14:45 10° WSW 19:21:21 29° S 19:29:04 15° SE visible
12 Feb 10.4 21:26:16 10° WSW 21:33:31 21° SSW 21:33:31 21° SSW visible
13 Feb 9.5 18:00:40 10° SW 18:06:02 27° S 18:14:13 10° ESE visible
13 Feb 10.0 20:11:02 10° WSW 20:17:48 24° SSW 20:22:32 19° SSE visible
13 Feb 10.8 22:25:27 10° SW 22:27:00 12° SW 22:27:00 12° SW visible
14 Feb 9.7 18:56:28 10° WSW 19:02:14 25° S 19:10:53 10° SE visible
14 Feb 10.4 21:08:22 10° WSW 21:14:20 17° SSW 21:16:05 17° SSW visible
